[[{"header":{"parameterUnit":"m.s-1","parameterCategory":1,"la1":30.2991,"la2":30.254,"lo1":-89.0895,"lo2":-89.0444,"dy":0.0017,"dx":0.0017,"nx":28,"ny":28,"refTime":"2024-06-29T03:00:00:Z","depth":0,"parameterNumber":2,"parameterNumberName":"U-component_of_WINDS"},"data":[0,0,0,0,0,0,0,0,0,0,0,0,0,0,0,0,0,0,0,0,0,0,0,0,0,0,0,0,0,0,0,0,0,0,0,0,0,0,0,0,0,0,0,0,0,0,0,0,0,0,0,0,0,0,0,0,0,0,-0.0126,-0.0126,0,-0.0062,-0.0061,-0.006,0.0055,0.0057,0.0059,0.0061,0.0125,0.0124,0.0124,0,0,0,0,0,0,0,0,0,0,0,0,0,-0.0154,-0.0155,-0.0126,-0.0126,-0.0125,-0.0062,-0.0061,-0.006,0.0054,0.0057,0.006,0.0062,0.0125,0.0124,0.0124,0,0,0,0,0,0,0,0,0,0,0,0,0,-0.0121,-0.0155,-0.0127,-0.006,-0.0054,-0.0062,-0.0061,-0.006,0.0054,0.0057,0.006,0.0063,0.0125,0.0124,0.0124,0.0055,0,0,0.0122,0.0122,0,0,0,0,0,0,0,0,-0.0123,-0.0121,-0.0071,-0.0065,-0.0057,-0.0008,-0.0047,-0.0021,0.0053,0.0013,0.0061,0.0065,0.0078,0.0081,0.0086,0.0058,0.0061,0.0122,0.0122,0.0122,0.0121,0,0,0,0,0,0,0,-0.0126,-0.0123,-0.0101,-0.007,-0.0062,-0.0035,-0.0026,-0.0042,0.0026,0.0017,0.0025,0.0031,0.0082,0.0086,0.0088,0.0062,0.0122,0.0122,0.0121,0.0121,-0.002,-0.0024,0,0,0,0,0,0,-0.0138,-0.0125,-0.0103,-0.0099,-0.0083,-0.0037,-0.0027,-0.0027,0.0026,0.0038,0.0028,0.0036,0.0085,0.0089,0.0091,0.0014,0.0122,0.0121,0.0121,-0.0017,-0.0021,-0.0025,0,0,0,0,0,0,-0.0139,-0.0137,-0.0105,-0.011,-0.0104,-0.004,-0.0041,-0.0028,-0.0023,0.0036,0.0048,0.0021,0.0088,0.0092,0.0063,0.0018,0.0121,0.012,-0.0013,-0.0018,-0.0023,-0.0141,0,0,0,0,0,0,-0.014,-0.0138,-0.0162,-0.0111,-0.0104,-0.0134,-0.0043,-0.0029,-0.0024,-0.0013,0.0032,0.0042,0.0091,0.0063,0.0063,0.0019,0.012,-0.0008,-0.0015,-0.0021,-0.0133,-0.015,-0.0164,0,0,0,0,0,-0.0141,-0.0199,-0.0164,-0.0162,-0.0133,-0.0137,-0.0133,-0.0074,-0.0028,-0.0053,-0.0015,0.0041,0.0023,0.0059,0.006,0.0015,-0.0005,-0.0013,-0.0021,-0.0126,-0.0147,-0.0164,0,0,0,0,0,0,-0.0258,-0.0191,-0.0152,-0.0194,-0.0172,-0.0117,-0.0147,-0.0098,-0.0089,-0.0079,-0.0008,0.0001,-0.0037,-0.0014,0.0026,-0.0049,0.0017,0.0009,-0.0063,-0.0082,-0.0097,-0.0102,0.012,0,0,0,0,0,-0.0288,-0.0296,-0.0237,-0.028,-0.0271,-0.0211,-0.021,-0.0167,-0.0142,-0.0132,-0.0096,-0.0075,-0.0075,-0.0077,-0.0075,-0.0129,-0.0118,-0.016,-0.0176,-0.0189,-0.0197,-0.0225,-0.0243,-0.005,-0.005,-0.005,0,0,-0.0352,-0.0316,-0.0325,-0.0303,-0.028,-0.0291,-0.0204,-0.0218,-0.0225,-0.0134,-0.0159,-0.0133,-0.0104,-0.0146,-0.0163,-0.0128,-0.0248,-0.0199,-0.021,-0.021,-0.0235,-0.0253,-0.0269,-0.0056,-0.0055,-0.0054,0,0,-0.0472,-0.0446,-0.0479,-0.0458,-0.0425,-0.0385,-0.0393,-0.0346,-0.0325,-0.0348,-0.028,-0.0289,-0.0291,-0.0273,-0.0265,-0.038,-0.0328,-0.0381,-0.0463,-0.0491,-0.0506,-0.0519,-0.056,-0.0576,-0.0389,-0.0389,-0.039,0,-0.0555,-0.0566,-0.0502,-0.0521,-0.0513,-0.0431,-0.0465,-0.0448,-0.0417,-0.0414,-0.0375,-0.0377,-0.0352,-0.0389,-0.0417,-0.0413,-0.0421,-0.0385,-0.0509,-0.0521,-0.0532,-0.0571,-0.0587,-0.0396,-0.0395,-0.0394,-0.0394,0,-0.0671,-0.068,-0.0711,-0.0682,-0.0678,-0.0704,-0.0645,-0.0649,-0.0607,-0.0571,-0.0597,-0.0564,-0.0553,-0.0559,-0.0518,-0.0591,-0.057,-0.0521,-0.0453,-0.0559,-0.0594,-0.0608,-0.0405,-0.0403,-0.0401,-0.0399,0,0,-0.0862,-0.0797,-0.081,-0.0795,-0.0753,-0.076,-0.0783,-0.0772,-0.0777,-0.0759,-0.0777,-0.0781,-0.0736,-0.0727,-0.0683,-0.0708,-0.0802,-0.0656,-0.0654,-0.0684,-0.0881,-0.0918,-0.0936,-0.0768,-0.077,-0.0772,-0.0883,0,-0.0973,-0.1008,-0.0951,-0.0999,-0.1008,-0.093,-0.095,-0.0928,-0.0895,-0.0899,-0.0863,-0.0868,-0.0807,-0.0801,-0.0822,-0.0786,-0.084,-0.0777,-0.0785,-0.0786,-0.0794,-0.0954,-0.0993,-0.11,-0.0897,-0.0899,-0.0901,0,-0.1108,-0.1095,-0.1144,-0.11,-0.1101,-0.112,-0.1106,-0.1109,-0.1083,-0.1058,-0.1048,-0.0996,-0.1017,-0.0951,-0.0979,-0.0938,-0.0938,-0.0921,-0.0923,-0.0922,-0.085,-0.0958,-0.1132,-0.1149,-0.0922,-0.092,-0.0918,0,-0.1243,-0.1238,-0.1267,-0.1257,-0.1206,-0.1221,-0.1201,-0.1171,-0.1168,-0.1156,-0.1154,-0.1145,-0.114,-0.1135,-0.1083,-0.104,-0.1119,-0.1048,-0.1099,-0.1101,-0.1119,-0.1118,-0.1297,-0.1119,-0.1119,-0.1119,-0.1118,0,-0.1373,-0.1406,-0.1327,-0.1344,-0.138,-0.1315,-0.1352,-0.1324,-0.1298,-0.131,-0.1243,-0.1255,-0.1186,-0.1192,-0.1151,-0.1181,-0.118,-0.1161,-0.115,-0.1167,-0.1169,-0.1166,-0.1157,-0.1123,-0.1122,-0.1121,-0.112,0,-0.153,-0.1478,-0.1504,-0.1453,-0.1441,-0.147,-0.1427,-0.1442,-0.1406,-0.1422,-0.1422,-0.1365,-0.1369,-0.1316,-0.131,-0.1283,-0.1331,-0.1307,-0.134,-0.1332,-0.1386,-0.1382,-0.1568,-0.1589,-0.1399,-0.1401,-0.1403,0,-0.1616,-0.1639,-0.1592,-0.1594,-0.1577,-0.1582,-0.1579,-0.1517,-0.1516,-0.1488,-0.1507,-0.1504,-0.1499,-0.1508,-0.1468,-0.1463,-0.1438,-0.1503,-0.1437,-0.1453,-0.1439,-0.1438,-0.1441,-0.1518,-0.152,-0.1522,-0.1523,0,-0.1775,-0.1748,-0.1745,-0.1734,-0.1732,-0.1721,-0.1705,-0.1711,-0.1643,-0.1647,-0.1649,-0.1645,-0.1638,-0.1637,-0.1624,-0.1604,-0.1554,-0.1545,-0.1556,-0.1574,-0.1592,-0.1584,-0.1378,-0.1541,-0.1539,-0.1538,-0.1537,-0.1536,-0.1899,-0.1916,-0.1886,-0.1885,-0.1867,-0.1854,-0.1865,-0.183,-0.1831,-0.1819,-0.1783,-0.1792,-0.1766,-0.1743,-0.1728,-0.1735,-0.1703,-0.172,-0.1724,-0.1729,-0.1739,-0.1592,-0.1732,-0.1732,-0.1731,-0.1731,-0.173,0,-0.2055,-0.2031,-0.2031,-0.2011,-0.2011,-0.1962,-0.1942,-0.1946,-0.1954,-0.1934,-0.193,-0.1933,-0.1932,-0.1892,-0.1886,-0.1899,-0.1876,-0.19,-0.1898,-0.1895,-0.1768,-0.1758,-0.1919,-0.1919,-0.1919,-0.1919,-0.1919,-0.1919,-0.2136,-0.2163,-0.2133,-0.2151,-0.2127,-0.2134,-0.2127,-0.2115,-0.2098,-0.2105,-0.2103,-0.2076,-0.2048,-0.204,-0.2037,-0.2026,-0.2027,-0.2059,-0.204,-0.1922,-0.1904,-0.1886,-0.1877,-0.206,-0.206,-0.2166,-0.2167,-0.2168]},{"header":{"parameterUnit":"m.s-1","parameterCategory":1,"la1":30.2991,"la2":30.254,"lo1":-89.0895,"lo2":-89.0444,"dy":0.0017,"dx":0.0017,"nx":28,"ny":28,"refTime":"2024-06-29T03:00:00:Z","depth":0,"parameterNumber":3,"parameterNumberName":"V-component_of_WINDS"},"data":[0,0,0,0,0,0,0,0,0,0,0,0,0,0,0,0,0,0,0,0,0,0,0,0,0,0,0,0,0,0,0,0,0,0,0,0,0,0,0,0,0,0,0,0,0,0,0,0,0,0,0,0,0,0,0,0,0,0,2.1084,2.1084,0,2.103,2.1029,2.1029,2.1041,2.1042,2.1043,2.1044,2.0982,2.098,2.0977,0,0,0,0,0,0,0,0,0,0,0,0,0,2.1192,2.119,2.1084,2.1084,2.1083,2.103,2.1029,2.1029,2.104,2.1042,2.1043,2.1044,2.0983,2.098,2.0977,0,0,0,0,0,0,0,0,0,0,0,0,0,2.1142,2.119,2.1084,2.1083,2.1082,2.103,2.1029,2.1028,2.104,2.1042,2.1043,2.1045,2.0984,2.098,2.0976,2.0921,0,0,2.0965,2.0963,0,0,0,0,0,0,0,0,2.1145,2.1138,2.1084,2.1083,2.1082,2.1044,2.1045,2.0992,2.104,2.1056,2.1044,2.1045,2.1001,2.0996,2.0982,2.0918,2.0916,2.0964,2.0962,2.096,2.0959,0,0,0,0,0,0,0,2.1149,2.1141,2.1063,2.1083,2.1082,2.1083,2.1077,2.1035,2.102,2.1055,2.1055,2.1049,2.1001,2.0986,2.0981,2.0915,2.0964,2.0961,2.0958,2.0957,2.0802,2.08,0,0,0,0,0,0,2.1154,2.1144,2.1064,2.1061,2.1118,2.1079,2.1073,2.1054,2.1021,2.1017,2.1048,2.105,2.0992,2.0985,2.0979,2.0911,2.096,2.0957,2.0954,2.0804,2.0802,2.08,0,0,0,0,0,0,2.1156,2.1147,2.1067,2.1102,2.1092,2.1076,2.1054,2.1052,2.1038,2.1016,2.1013,2.1036,2.0993,2.0984,2.0936,2.0909,2.0955,2.0951,2.0806,2.0803,2.0801,2.0776,0,0,0,0,0,0,2.1159,2.1147,2.1128,2.1102,2.109,2.1026,2.1053,2.105,2.1031,2.1034,2.1003,2.1,2.0993,2.0941,2.0932,2.0905,2.0948,2.0808,2.0805,2.0802,2.0779,2.0773,2.0768,0,0,0,0,0,2.1163,2.1122,2.1127,2.1117,2.1066,2.1025,2.1018,2.1013,2.1029,2.1008,2.0994,2.1001,2.0914,2.0936,2.0926,2.0897,2.081,2.0806,2.0802,2.0782,2.0774,2.0768,0,0,0,0,0,0,2.1143,2.1118,2.1123,2.1073,2.1051,2.1027,2.1,2.1005,2.0976,2.0979,2.0972,2.0965,2.0916,2.0902,2.0927,2.0841,2.0864,2.0858,2.0852,2.0845,2.0839,2.0843,2.0945,0,0,0,0,0,2.1133,2.1103,2.1083,2.104,2.1029,2.1017,2.0999,2.0997,2.0973,2.0963,2.0945,2.092,2.0887,2.0865,2.0834,2.0778,2.077,2.0752,2.0747,2.0742,2.0736,2.0704,2.0696,2.0787,2.0787,2.0787,0,0,2.1111,2.1094,2.1076,2.1036,2.1019,2.0986,2.1009,2.0974,2.0949,2.0957,2.0911,2.0897,2.0868,2.0815,2.0791,2.0802,2.071,2.0737,2.0733,2.073,2.0699,2.0691,2.0683,2.0784,2.0784,2.0785,0,0,2.1055,2.104,2.1003,2.0986,2.096,2.0952,2.0943,2.0918,2.0909,2.0863,2.0868,2.0838,2.0781,2.0761,2.0743,2.0679,2.0683,2.0668,2.0638,2.0607,2.06,2.0593,2.0569,2.0561,2.0663,2.0663,2.0663,0,2.1031,2.0985,2.0983,2.0948,2.0929,2.0937,2.0898,2.088,2.0845,2.0831,2.0844,2.0773,2.0754,2.0696,2.0681,2.0666,2.0654,2.0671,2.0601,2.0595,2.0589,2.0566,2.0557,2.0661,2.0661,2.0662,2.0662,0,2.0956,2.0923,2.0896,2.0864,2.0842,2.0805,2.0796,2.0774,2.0774,2.0764,2.0715,2.0693,2.0657,2.0644,2.0642,2.0585,2.0592,2.0603,2.0626,2.0578,2.0557,2.0548,2.0659,2.0659,2.066,2.066,0,0,2.0885,2.0853,2.0842,2.0828,2.08,2.0773,2.0736,2.0703,2.0683,2.0658,2.0626,2.0578,2.0588,2.0567,2.0564,2.0537,2.0486,2.0551,2.055,2.0539,2.042,2.0412,2.0402,2.049,2.0488,2.0487,2.0422,0,2.0826,2.0763,2.076,2.0701,2.067,2.0677,2.0644,2.0622,2.0611,2.0582,2.057,2.0536,2.0552,2.054,2.0513,2.0498,2.0462,2.0503,2.0457,2.0456,2.0464,2.0391,2.0382,2.0322,2.0414,2.0413,2.0412,0,2.0749,2.0724,2.0662,2.0639,2.0625,2.0596,2.0565,2.0538,2.0512,2.0506,2.0484,2.0484,2.0444,2.0468,2.0412,2.0439,2.042,2.041,2.0407,2.0402,2.043,2.0382,2.0303,2.0294,2.0398,2.0399,2.04,0,2.0703,2.0653,2.061,2.0597,2.0568,2.0547,2.0534,2.051,2.049,2.0462,2.0449,2.0416,2.0397,2.0371,2.0361,2.038,2.0304,2.0328,2.0297,2.0297,2.028,2.0281,2.0195,2.0269,2.0269,2.0269,2.0269,0,2.0637,2.0599,2.0589,2.0562,2.0519,2.0515,2.0472,2.0459,2.0438,2.0408,2.0411,2.0382,2.0372,2.034,2.0332,2.0286,2.0278,2.027,2.0269,2.027,2.0271,2.0257,2.026,2.0267,2.0267,2.0268,2.0268,0,2.0577,2.0569,2.0523,2.05,2.0493,2.0462,2.0441,2.0415,2.0405,2.0366,2.0357,2.0341,2.0304,2.0292,2.0247,2.0242,2.0188,2.019,2.0197,2.0196,2.0165,2.0168,2.0067,2.0053,2.0136,2.0135,2.0135,0,2.0536,2.0507,2.0481,2.0462,2.0448,2.0417,2.0397,2.0391,2.037,2.0339,2.0315,2.028,2.0251,2.0191,2.0174,2.0139,2.014,2.0107,2.0135,2.0137,2.0139,2.014,2.0137,2.0102,2.0101,2.01,2.01,0,2.0462,2.0459,2.0431,2.0402,2.0378,2.0354,2.0331,2.0314,2.0305,2.028,2.0244,2.0221,2.0176,2.014,2.0105,2.0089,2.0092,2.0091,2.0082,2.0082,2.0087,2.0083,2.0182,2.0093,2.0094,2.0094,2.0095,2.0095,2.0409,2.0384,2.0362,2.033,2.0313,2.0291,2.0265,2.0252,2.0222,2.0187,2.0184,2.0144,2.0119,2.0072,2.0054,2.0022,2.0031,2.0018,2.0014,2.0011,2.0008,2.0093,2.0015,2.0015,2.0016,2.0016,2.0016,0,2.0335,2.0322,2.0293,2.0261,2.0236,2.0243,2.0217,2.0195,2.0161,2.0138,2.0109,2.0067,2.0031,2.0012,1.9976,1.9954,1.9954,1.9944,1.9946,1.9942,2.0002,2.0013,1.9945,1.9945,1.9945,1.9945,1.9945,1.9945,2.0294,2.0251,2.0246,2.0193,2.0179,2.0142,2.0127,2.0106,2.0087,2.004,2.0012,2.0,1.9977,1.994,1.9908,1.9903,1.9889,1.9878,1.9874,1.993,1.9938,1.9944,1.9955,1.9875,1.9875,1.9816,1.9815,1.9815]}]]